When you browse on this site, cookies collect data to enhance your experience and personalize the content and advertising you see.
Visit our Privacy Policy to learn more. By continuing to use the site, you agree to this use of cookies and data.
  • In Hungary
  • List of Countries
  • For 7 days
  • Water Temperature
  • Satellite Maps
  • Weather Map
  • News
  • Weather Widgets
  • user-avatar
    Login

    Hourly Weather Dakar

    Today, 12 December, Wednesday

    Time Temperature Precipitation Wind Pressure Humidity
    00:00 +24°C° 0 mm 9 mps 760 mmHg 53%
    01:00 +23°C° 0 mm 9 mps 760 mmHg 53%
    02:00 +23°C° 0 mm 9 mps 760 mmHg 54%
    03:00 +23°C° 0 mm 9 mps 760 mmHg 50%
    04:00 +22°C° 0 mm 8 mps 760 mmHg 46%
    05:00 +22°C° 0 mm 8 mps 760 mmHg 42%
    06:00 +23°C° 0 mm 8 mps 760 mmHg 34%
    07:00 +24°C° 0 mm 8 mps 760 mmHg 26%
    08:00 +24°C° 0 mm 7 mps 761 mmHg 19%
    09:00 +28°C° 0 mm 7 mps 761 mmHg 15%
    10:00 +30°C° 0 mm 7 mps 761 mmHg 12%
    11:00 +34°C° 0 mm 6 mps 761 mmHg 9%
    12:00 +35°C° 0 mm 6 mps 760 mmHg 9%
    13:00 +36°C° 0 mm 6 mps 760 mmHg 10%
    14:00 +38°C° 0 mm 6 mps 759 mmHg 10%
    15:00 +35°C° 0 mm 6 mps 759 mmHg 16%
    16:00 +33°C° 0 mm 6 mps 759 mmHg 22%
    17:00 +30°C° 0 mm 7 mps 759 mmHg 28%
    18:00 +29°C° 0 mm 7 mps 759 mmHg 35%
    19:00 +27°C° 0 mm 7 mps 760 mmHg 43%
    20:00 +26°C° 0 mm 7 mps 760 mmHg 51%
    21:00 +26°C° 0 mm 7 mps 760 mmHg 53%
    22:00 +24°C° 0 mm 7 mps 760 mmHg 55%
    23:00 +24°C° 0 mm 7 mps 760 mmHg 57%

    Tomorrow, 13 December, Thursday

    Time Temperature Precipitation Wind Pressure Humidity
    00:00 +24°C° 0 mm 8 mps 760 mmHg 52%
    01:00 +24°C° 0 mm 8 mps 760 mmHg 46%
    02:00 +24°C° 0 mm 8 mps 760 mmHg 41%
    03:00 +24°C° 0 mm 8 mps 760 mmHg 33%
    04:00 +23°C° 0 mm 8 mps 760 mmHg 25%
    05:00 +23°C° 0 mm 8 mps 760 mmHg 17%
    06:00 +24°C° 0 mm 8 mps 760 mmHg 16%
    07:00 +26°C° 0 mm 9 mps 760 mmHg 15%
    08:00 +27°C° 0 mm 9 mps 761 mmHg 14%
    09:00 +29°C° 0 mm 8 mps 761 mmHg 12%
    10:00 +32°C° 0 mm 8 mps 761 mmHg 11%
    11:00 +35°C° 0 mm 7 mps 761 mmHg 10%
    12:00 +36°C° 0 mm 6 mps 760 mmHg 10%
    13:00 +37°C° 0 mm 5 mps 759 mmHg 10%
    14:00 +40°C° 0 mm 5 mps 759 mmHg 10%
    15:00 +39°C° 0 mm 5 mps 759 mmHg 13%
    16:00 +36°C° 0 mm 5 mps 759 mmHg 16%
    17:00 +35°C° 0 mm 6 mps 759 mmHg 19%
    18:00 +33°C° 0 mm 6 mps 759 mmHg 25%
    19:00 +30°C° 0 mm 6 mps 759 mmHg 32%
    20:00 +28°C° 0 mm 6 mps 760 mmHg 39%
    21:00 +28°C° 0 mm 6 mps 760 mmHg 32%
    22:00 +28°C° 0 mm 6 mps 760 mmHg 25%
    23:00 +28°C° 0 mm 6 mps 760 mmHg 18%

    Day after tomorrow, 14 December, Friday

    Time Temperature Precipitation Wind Pressure Humidity
    00:00 +27°C° 0 mm 7 mps 760 mmHg 17%
    01:00 +27°C° 0 mm 7 mps 760 mmHg 17%
    02:00 +26°C° 0 mm 7 mps 760 mmHg 16%
    03:00 +26°C° 0 mm 7 mps 760 mmHg 15%
    04:00 +26°C° 0 mm 7 mps 760 mmHg 15%
    05:00 +24°C° 0 mm 8 mps 760 mmHg 14%
    06:00 +26°C° 0 mm 8 mps 761 mmHg 13%
    07:00 +27°C° 0 mm 8 mps 761 mmHg 13%
    08:00 +28°C° 0 mm 8 mps 762 mmHg 12%
    09:00 +32°C° 0 mm 8 mps 762 mmHg 11%
    10:00 +34°C° 0 mm 7 mps 762 mmHg 10%
    11:00 +38°C° 0 mm 7 mps 762 mmHg 8%
    12:00 +39°C° 0 mm 6 mps 761 mmHg 8%
    13:00 +40°C° 0 mm 6 mps 760 mmHg 8%
    14:00 +41°C° 0 mm 5 mps 760 mmHg 8%
    15:00 +40°C° 0 mm 5 mps 760 mmHg 9%
    16:00 +38°C° 0 mm 6 mps 760 mmHg 11%
    17:00 +36°C° 0 mm 7 mps 760 mmHg 12%
    18:00 +35°C° 0 mm 7 mps 760 mmHg 13%
    19:00 +34°C° 0 mm 8 mps 761 mmHg 15%
    20:00 +33°C° 0 mm 9 mps 762 mmHg 16%
    21:00 +33°C° 0 mm 10 mps 762 mmHg 17%
    22:00 +32°C° 0 mm 10 mps 762 mmHg 19%
    23:00 +31°C° 0 mm 11 mps 762 mmHg 20%

    15 December, Saturday

    Time Temperature Precipitation Wind Pressure Humidity
    00:00 +31°C° 0.1 mm 10 mps 762 mmHg 19%
    01:00 +29°C° 0.1 mm 10 mps 762 mmHg 19%
    02:00 +29°C° 0.1 mm 10 mps 761 mmHg 18%
    03:00 +28°C° 0 mm 10 mps 761 mmHg 21%
    04:00 +28°C° 0 mm 10 mps 761 mmHg 23%
    05:00 +27°C° 0 mm 11 mps 761 mmHg 26%
    06:00 +28°C° 0 mm 10 mps 762 mmHg 23%
    07:00 +28°C° 0 mm 10 mps 763 mmHg 20%
    08:00 +28°C° 0 mm 9 mps 763 mmHg 17%
    09:00 +32°C° 0 mm 9 mps 763 mmHg 15%
    10:00 +34°C° 0 mm 8 mps 763 mmHg 13%
    11:00 +36°C° 0 mm 7 mps 764 mmHg 12%
    12:00 +36°C° 0 mm 7 mps 763 mmHg 12%
    13:00 +38°C° 0 mm 8 mps 762 mmHg 13%
    14:00 +39°C° 0 mm 9 mps 761 mmHg 14%
    15:00 +38°C° 0 mm 8 mps 761 mmHg 15%
    16:00 +37°C° 0 mm 8 mps 761 mmHg 16%
    17:00 +35°C° 0 mm 8 mps 761 mmHg 17%
    18:00 +34°C° 0 mm 8 mps 762 mmHg 19%
    19:00 +33°C° 0 mm 7 mps 762 mmHg 21%
    20:00 +30°C° 0 mm 7 mps 763 mmHg 23%
    21:00 +30°C° 0 mm 6 mps 763 mmHg 25%
    22:00 +29°C° 0 mm 6 mps 763 mmHg 27%
    23:00 +28°C° 0 mm 6 mps 763 mmHg 29%

    16 December, Sunday

    Time Temperature Precipitation Wind Pressure Humidity
    00:00 +27°C° 0 mm 6 mps 762 mmHg 30%
    01:00 +27°C° 0 mm 6 mps 762 mmHg 32%
    02:00 +27°C° 0 mm 6 mps 761 mmHg 33%
    03:00 +26°C° 0 mm 6 mps 761 mmHg 34%
    04:00 +26°C° 0 mm 6 mps 761 mmHg 34%
    05:00 +24°C° 0 mm 6 mps 762 mmHg 34%
    06:00 +26°C° 0 mm 6 mps 762 mmHg 32%
    07:00 +26°C° 0 mm 6 mps 762 mmHg 30%
    08:00 +27°C° 0 mm 7 mps 763 mmHg 28%
    09:00 +29°C° 0 mm 6 mps 763 mmHg 26%
    10:00 +32°C° 0 mm 6 mps 763 mmHg 24%
    11:00 +35°C° 0 mm 5 mps 763 mmHg 22%
    12:00 +35°C° 0 mm 6 mps 762 mmHg 21%
    13:00 +36°C° 0 mm 6 mps 761 mmHg 19%
    14:00 +38°C° 0 mm 6 mps 761 mmHg 17%
    15:00 +36°C° 0 mm 6 mps 761 mmHg 21%
    16:00 +34°C° 0 mm 7 mps 761 mmHg 24%
    17:00 +33°C° 0 mm 7 mps 761 mmHg 28%
    18:00 +31°C° 0 mm 8 mps 761 mmHg 34%
    19:00 +28°C° 0 mm 8 mps 762 mmHg 41%
    20:00 +27°C° 0 mm 8 mps 762 mmHg 47%
    21:00 +26°C° 0 mm 8 mps 762 mmHg 49%
    22:00 +26°C° 0 mm 8 mps 762 mmHg 52%
    23:00 +26°C° 0 mm 8 mps 762 mmHg 54%

    17 December, Monday

    Time Temperature Precipitation Wind Pressure Humidity
    00:00 +26°C° 0 mm 9 mps 762 mmHg 51%
    01:00 +24°C° 0 mm 9 mps 761 mmHg 48%
    02:00 +24°C° 0 mm 9 mps 761 mmHg 45%
    03:00 +24°C° 0 mm 9 mps 761 mmHg 40%
    04:00 +24°C° 0 mm 9 mps 761 mmHg 35%
    05:00 +24°C° 0 mm 9 mps 761 mmHg 30%
    06:00 +24°C° 0 mm 8 mps 761 mmHg 27%
    07:00 +26°C° 0 mm 8 mps 762 mmHg 23%
    08:00 +27°C° 0 mm 8 mps 762 mmHg 20%
    09:00 +29°C° 0 mm 7 mps 762 mmHg 17%
    10:00 +32°C° 0 mm 7 mps 762 mmHg 13%
    11:00 +35°C° 0 mm 6 mps 762 mmHg 10%
    12:00 +36°C° 0 mm 6 mps 761 mmHg 10%
    13:00 +38°C° 0 mm 6 mps 760 mmHg 9%
    14:00 +39°C° 0 mm 6 mps 760 mmHg 9%
    15:00 +36°C° 0 mm 6 mps 760 mmHg 12%
    16:00 +35°C° 0 mm 7 mps 760 mmHg 16%
    17:00 +34°C° 0 mm 7 mps 760 mmHg 19%
    18:00 +32°C° 0 mm 8 mps 760 mmHg 27%
    19:00 +29°C° 0 mm 8 mps 761 mmHg 36%
    20:00 +27°C° 0 mm 9 mps 761 mmHg 44%
    21:00 +27°C° 0 mm 9 mps 761 mmHg 42%
    22:00 +26°C° 0 mm 9 mps 761 mmHg 40%
    23:00 +26°C° 0 mm 9 mps 761 mmHg 38%
    Show more